2019,05,29,00,00,00,123.5,,,,,,,,,,,,,,
2019,05,29,00,01,00,123.1,,,,,,,,,,,,,,
2019,05,29,00,02,00,123.0,,,,,,,,,,,,,,
2019,05,29,00,03,00,123.1,,,,,,,,,,,,,,
2019,05,29,00,04,00,121.1,,,,,,,,,,,,,,
2019,05,29,00,05,00,127.3,,,,,,,,,,,,,,
2019,05,29,00,06,00,121.8,,,,,,,,,,,,,,
2019,05,29,00,07,00,121.9,,,,,,,,,,,,,,
2019,05,29,00,08,00,122.2,,,,,,,,,,,,,,
2019,05,29,00,09,00,123.5,,,,,,,,,,,,,,
2019,05,29,00,10,00,123.0,,,,,,,,,,,,,,
2019,05,29,00,11,00,123.1,,,,,,,,,,,,,,
2019,05,29,00,12,00,133.4,,,,,,,,,,,,,,
2019,05,29,00,13,00,151.1,,,,,,,,,,,,,,
2019,05,29,00,14,00,143.0,,,,,,,,,,,,,,
2019,05,29,00,15,00,148.8,,,,,,,,,,,,,,
2019,05,29,00,16,00,152.7,,,,,,,,,,,,,,
2019,05,29,00,17,00,146.8,,,,,,,,,,,,,,
2019,05,29,00,18,00,150.4,,,,,,,,,,,,,,
2019,05,29,00,19,00,150.3,,,,,,,,,,,,,,
2019,05,29,00,20,00,157.1,,,,,,,,,,,,,,
2019,05,29,00,21,00,157.4,,,,,,,,,,,,,,
2019,05,29,00,22,00,160.3,,,,,,,,,,,,,,
2019,05,29,00,23,00,147.9,,,,,,,,,,,,,,
2019,05,29,00,24,00,139.9,,,,,,,,,,,,,,
2019,05,29,00,25,00,139.7,,,,,,,,,,,,,,
2019,05,29,00,26,00,143.6,,,,,,,,,,,,,,
2019,05,29,00,27,00,128.1,,,,,,,,,,,,,,
2019,05,29,00,28,00,122.0,,,,,,,,,,,,,,
2019,05,29,00,29,00,122.4,,,,,,,,,,,,,,
2019,05,29,00,30,00,122.5,,,,,,,,,,,,,,
2019,05,29,00,31,00,121.4,,,,,,,,,,,,,,
2019,05,29,00,32,00,121.5,,,,,,,,,,,,,,
2019,05,29,00,33,00,122.8,,,,,,,,,,,,,,
2019,05,29,00,34,00,123.6,,,,,,,,,,,,,,
2019,05,29,00,35,00,123.4,,,,,,,,,,,,,,
2019,05,29,00,36,00,122.5,,,,,,,,,,,,,,
2019,05,29,00,37,00,121.7,,,,,,,,,,,,,,
2019,05,29,00,38,00,120.5,,,,,,,,,,,,,,
2019,05,29,00,39,00,120.6,,,,,,,,,,,,,,
2019,05,29,00,40,00,121.4,,,,,,,,,,,,,,
2019,05,29,00,41,00,122.4,,,,,,,,,,,,,,
2019,05,29,00,42,00,124.8,,,,,,,,,,,,,,
2019,05,29,00,43,00,135.8,,,,,,,,,,,,,,
2019,05,29,00,44,00,139.0,,,,,,,,,,,,,,
2019,05,29,00,45,00,135.0,,,,,,,,,,,,,,
2019,05,29,00,46,00,135.0,,,,,,,,,,,,,,
2019,05,29,00,47,00,143.2,,,,,,,,,,,,,,
2019,05,29,00,48,00,148.6,,,,,,,,,,,,,,
2019,05,29,00,49,00,151.7,,,,,,,,,,,,,,
2019,05,29,00,50,00,155.4,,,,,,,,,,,,,,
2019,05,29,00,51,00,161.6,,,,,,,,,,,,,,
2019,05,29,00,52,00,167.2,,,,,,,,,,,,,,
2019,05,29,00,53,00,151.5,,,,,,,,,,,,,,
2019,05,29,00,54,00,140.7,,,,,,,,,,,,,,
2019,05,29,00,55,00,125.3,,,,,,,,,,,,,,
2019,05,29,00,56,00,150.4,,,,,,,,,,,,,,
2019,05,29,00,57,00,146.8,,,,,,,,,,,,,,
2019,05,29,00,58,00,135.6,,,,,,,,,,,,,,
2019,05,29,00,59,00,156.5,,,,,,,,,,,,,,
2019,05,29,01,00,00,179.9,,,,,,,,,,,,,,
2019,05,29,01,01,00,165.8,,,,,,,,,,,,,,
2019,05,29,01,02,00,163.5,,,,,,,,,,,,,,
2019,05,29,01,03,00,165.8,,,,,,,,,,,,,,
2019,05,29,01,04,00,156.9,,,,,,,,,,,,,,
2019,05,29,01,05,00,146.9,,,,,,,,,,,,,,
2019,05,29,01,06,00,124.2,,,,,,,,,,,,,,
2019,05,29,01,07,00,123.0,,,,,,,,,,,,,,
2019,05,29,01,08,00,123.9,,,,,,,,,,,,,,
2019,05,29,01,09,00,125.0,,,,,,,,,,,,,,
2019,05,29,01,10,00,121.1,,,,,,,,,,,,,,
2019,05,29,01,11,00,124.2,,,,,,,,,,,,,,
2019,05,29,01,12,00,123.2,,,,,,,,,,,,,,
2019,05,29,01,13,00,122.2,,,,,,,,,,,,,,
2019,05,29,01,14,00,120.6,,,,,,,,,,,,,,
2019,05,29,01,15,00,122.1,,,,,,,,,,,,,,
2019,05,29,01,16,00,120.0,,,,,,,,,,,,,,
2019,05,29,01,17,00,120.1,,,,,,,,,,,,,,
2019,05,29,01,18,00,118.1,,,,,,,,,,,,,,
2019,05,29,01,19,00,117.4,,,,,,,,,,,,,,
2019,05,29,01,20,00,117.5,,,,,,,,,,,,,,
2019,05,29,01,21,00,113.3,,,,,,,,,,,,,,
2019,05,29,01,22,00,117.9,,,,,,,,,,,,,,
2019,05,29,01,23,00,122.0,,,,,,,,,,,,,,
2019,05,29,01,24,00,120.5,,,,,,,,,,,,,,
2019,05,29,01,25,00,116.7,,,,,,,,,,,,,,
2019,05,29,01,26,00,117.1,,,,,,,,,,,,,,
2019,05,29,01,27,00,119.8,,,,,,,,,,,,,,
2019,05,29,01,28,00,122.4,,,,,,,,,,,,,,
2019,05,29,01,29,00,123.9,,,,,,,,,,,,,,
2019,05,29,01,30,00,123.0,,,,,,,,,,,,,,
2019,05,29,01,31,00,123.4,,,,,,,,,,,,,,
2019,05,29,01,32,00,123.5,,,,,,,,,,,,,,
2019,05,29,01,33,00,123.9,,,,,,,,,,,,,,
2019,05,29,01,34,00,123.1,,,,,,,,,,,,,,
2019,05,29,01,35,00,123.6,,,,,,,,,,,,,,
2019,05,29,01,36,00,128.7,,,,,,,,,,,,,,
2019,05,29,01,37,00,123.7,,,,,,,,,,,,,,
2019,05,29,01,38,00,122.4,,,,,,,,,,,,,,
2019,05,29,01,39,00,124.1,,,,,,,,,,,,,,
2019,05,29,01,40,00,145.0,,,,,,,,,,,,,,
2019,05,29,01,41,00,149.5,,,,,,,,,,,,,,
2019,05,29,01,42,00,161.5,,,,,,,,,,,,,,
2019,05,29,01,43,00,153.2,,,,,,,,,,,,,,
2019,05,29,01,44,00,136.2,,,,,,,,,,,,,,
2019,05,29,01,45,00,156.3,,,,,,,,,,,,,,
2019,05,29,01,46,00,163.9,,,,,,,,,,,,,,
2019,05,29,01,47,00,157.1,,,,,,,,,,,,,,
2019,05,29,01,48,00,130.5,,,,,,,,,,,,,,
2019,05,29,01,49,00,123.2,,,,,,,,,,,,,,
2019,05,29,01,50,00,123.0,,,,,,,,,,,,,,
2019,05,29,01,51,00,123.2,,,,,,,,,,,,,,
2019,05,29,01,52,00,123.3,,,,,,,,,,,,,,
2019,05,29,01,53,00,121.1,,,,,,,,,,,,,,
2019,05,29,01,54,00,120.6,,,,,,,,,,,,,,
2019,05,29,01,55,00,122.2,,,,,,,,,,,,,,
2019,05,29,01,56,00,122.6,,,,,,,,,,,,,,
2019,05,29,01,57,00,119.0,,,,,,,,,,,,,,
2019,05,29,01,58,00,116.0,,,,,,,,,,,,,,
2019,05,29,01,59,00,115.9,,,,,,,,,,,,,,
2019,05,29,02,00,00,113.0,,,,,,,,,,,,,,
2019,05,29,02,01,00,109.5,,,,,,,,,,,,,,
2019,05,29,02,02,00,111.2,,,,,,,,,,,,,,
2019,05,29,02,03,00,111.7,,,,,,,,,,,,,,
2019,05,29,02,04,00,115.0,,,,,,,,,,,,,,
2019,05,29,02,05,00,118.2,,,,,,,,,,,,,,
2019,05,29,02,06,00,122.5,,,,,,,,,,,,,,
2019,05,29,02,07,00,124.6,,,,,,,,,,,,,,
2019,05,29,02,08,00,125.3,,,,,,,,,,,,,,
2019,05,29,02,09,00,122.9,,,,,,,,,,,,,,
2019,05,29,02,10,00,112.2,,,,,,,,,,,,,,
2019,05,29,02,11,00,109.9,,,,,,,,,,,,,,
2019,05,29,02,12,00,111.4,,,,,,,,,,,,,,
2019,05,29,02,13,00,118.9,,,,,,,,,,,,,,
2019,05,29,02,14,00,117.8,,,,,,,,,,,,,,
2019,05,29,02,15,00,116.7,,,,,,,,,,,,,,
2019,05,29,02,16,00,114.8,,,,,,,,,,,,,,
2019,05,29,02,17,00,118.4,,,,,,,,,,,,,,
2019,05,29,02,18,00,122.4,,,,,,,,,,,,,,
2019,05,29,02,19,00,122.4,,,,,,,,,,,,,,
2019,05,29,02,20,00,121.2,,,,,,,,,,,,,,
2019,05,29,02,21,00,114.1,,,,,,,,,,,,,,
2019,05,29,02,22,00,113.0,,,,,,,,,,,,,,
2019,05,29,02,23,00,111.9,,,,,,,,,,,,,,
2019,05,29,02,24,00,111.7,,,,,,,,,,,,,,
2019,05,29,02,25,00,109.4,,,,,,,,,,,,,,
2019,05,29,02,26,00,96.0,,,,,,,,,,,,,,
2019,05,29,02,27,00,88.4,,,,,,,,,,,,,,
2019,05,29,02,28,00,83.3,,,,,,,,,,,,,,
2019,05,29,02,29,00,82.1,,,,,,,,,,,,,,
2019,05,29,02,30,00,82.9,,,,,,,,,,,,,,
2019,05,29,02,31,00,84.6,,,,,,,,,,,,,,
2019,05,29,02,32,00,86.1,,,,,,,,,,,,,,
2019,05,29,02,33,00,88.2,,,,,,,,,,,,,,
2019,05,29,02,34,00,91.8,,,,,,,,,,,,,,
2019,05,29,02,35,00,97.1,,,,,,,,,,,,,,
2019,05,29,02,36,00,89.4,,,,,,,,,,,,,,
2019,05,29,02,37,00,88.0,,,,,,,,,,,,,,
2019,05,29,02,38,00,83.1,,,,,,,,,,,,,,
2019,05,29,02,39,00,83.1,,,,,,,,,,,,,,
2019,05,29,02,40,00,81.6,,,,,,,,,,,,,,
2019,05,29,02,41,00,83.5,,,,,,,,,,,,,,
2019,05,29,02,42,00,87.0,,,,,,,,,,,,,,
2019,05,29,02,43,00,83.9,,,,,,,,,,,,,,
2019,05,29,02,44,00,93.9,,,,,,,,,,,,,,
2019,05,29,02,45,00,89.5,,,,,,,,,,,,,,
2019,05,29,02,46,00,100.3,,,,,,,,,,,,,,
2019,05,29,02,47,00,104.1,,,,,,,,,,,,,,
2019,05,29,02,48,00,109.9,,,,,,,,,,,,,,
2019,05,29,02,49,00,110.3,,,,,,,,,,,,,,
2019,05,29,02,50,00,109.3,,,,,,,,,,,,,,
2019,05,29,02,51,00,101.9,,,,,,,,,,,,,,
2019,05,29,02,52,00,96.6,,,,,,,,,,,,,,
2019,05,29,02,53,00,100.6,,,,,,,,,,,,,,
2019,05,29,02,54,00,94.4,,,,,,,,,,,,,,
2019,05,29,02,55,00,90.6,,,,,,,,,,,,,,
2019,05,29,02,56,00,87.8,,,,,,,,,,,,,,
2019,05,29,02,57,00,89.5,,,,,,,,,,,,,,
2019,05,29,02,58,00,85.7,,,,,,,,,,,,,,
2019,05,29,02,59,00,95.8,,,,,,,,,,,,,,
2019,05,29,03,00,00,105.0,,,,,,,,,,,,,,
2019,05,29,03,01,00,111.4,,,,,,,,,,,,,,
2019,05,29,03,02,00,114.0,,,,,,,,,,,,,,
2019,05,29,03,03,00,107.7,,,,,,,,,,,,,,
2019,05,29,03,04,00,106.4,,,,,,,,,,,,,,
2019,05,29,03,05,00,114.3,,,,,,,,,,,,,,
2019,05,29,03,06,00,119.8,,,,,,,,,,,,,,
2019,05,29,03,07,00,112.0,,,,,,,,,,,,,,
2019,05,29,03,08,00,114.6,,,,,,,,,,,,,,
2019,05,29,03,09,00,113.0,,,,,,,,,,,,,,
2019,05,29,03,10,00,111.9,,,,,,,,,,,,,,
2019,05,29,03,11,00,104.2,,,,,,,,,,,,,,
2019,05,29,03,12,00,102.7,,,,,,,,,,,,,,
2019,05,29,03,13,00,113.3,,,,,,,,,,,,,,
2019,05,29,03,14,00,119.1,,,,,,,,,,,,,,
2019,05,29,03,15,00,113.9,,,,,,,,,,,,,,
2019,05,29,03,16,00,112.5,,,,,,,,,,,,,,
2019,05,29,03,17,00,118.3,,,,,,,,,,,,,,
2019,05,29,03,18,00,108.7,,,,,,,,,,,,,,
2019,05,29,03,19,00,102.6,,,,,,,,,,,,,,
2019,05,29,03,20,00,96.0,,,,,,,,,,,,,,
2019,05,29,03,21,00,94.8,,,,,,,,,,,,,,
2019,05,29,03,22,00,93.4,,,,,,,,,,,,,,
2019,05,29,03,23,00,99.7,,,,,,,,,,,,,,
2019,05,29,03,24,00,100.9,,,,,,,,,,,,,,
2019,05,29,03,25,00,97.0,,,,,,,,,,,,,,
2019,05,29,03,26,00,101.8,,,,,,,,,,,,,,
2019,05,29,03,27,00,92.3,,,,,,,,,,,,,,
2019,05,29,03,28,00,87.9,,,,,,,,,,,,,,
2019,05,29,03,29,00,86.1,,,,,,,,,,,,,,
2019,05,29,03,30,00,84.9,,,,,,,,,,,,,,
2019,05,29,03,31,00,88.5,,,,,,,,,,,,,,
2019,05,29,03,32,00,84.6,,,,,,,,,,,,,,
2019,05,29,03,33,00,83.5,,,,,,,,,,,,,,
2019,05,29,03,34,00,89.1,,,,,,,,,,,,,,
2019,05,29,03,35,00,92.0,,,,,,,,,,,,,,
2019,05,29,03,36,00,89.8,,,,,,,,,,,,,,
2019,05,29,03,37,00,89.1,,,,,,,,,,,,,,
2019,05,29,03,38,00,87.9,,,,,,,,,,,,,,
2019,05,29,03,39,00,93.6,,,,,,,,,,,,,,
2019,05,29,03,40,00,88.6,,,,,,,,,,,,,,
2019,05,29,03,41,00,89.3,,,,,,,,,,,,,,
2019,05,29,03,42,00,85.7,,,,,,,,,,,,,,
2019,05,29,03,43,00,86.7,,,,,,,,,,,,,,
2019,05,29,03,44,00,96.4,,,,,,,,,,,,,,
2019,05,29,03,45,00,99.3,,,,,,,,,,,,,,
2019,05,29,03,46,00,95.2,,,,,,,,,,,,,,
2019,05,29,03,47,00,82.0,,,,,,,,,,,,,,
2019,05,29,03,48,00,89.5,,,,,,,,,,,,,,
2019,05,29,03,49,00,84.6,,,,,,,,,,,,,,
2019,05,29,03,50,00,85.2,,,,,,,,,,,,,,
2019,05,29,03,51,00,99.8,,,,,,,,,,,,,,
2019,05,29,03,52,00,91.9,,,,,,,,,,,,,,
2019,05,29,03,53,00,93.5,,,,,,,,,,,,,,
2019,05,29,03,54,00,87.8,,,,,,,,,,,,,,
2019,05,29,03,55,00,98.2,,,,,,,,,,,,,,
2019,05,29,03,56,00,100.8,,,,,,,,,,,,,,
2019,05,29,03,57,00,100.9,,,,,,,,,,,,,,
2019,05,29,03,58,00,96.5,,,,,,,,,,,,,,
2019,05,29,03,59,00,85.9,,,,,,,,,,,,,,
2019,05,29,04,00,00,92.4,,,,,,,,,,,,,,
2019,05,29,04,01,00,94.4,,,,,,,,,,,,,,
2019,05,29,04,02,00,101.7,,,,,,,,,,,,,,
2019,05,29,04,03,00,100.4,,,,,,,,,,,,,,
2019,05,29,04,04,00,99.8,,,,,,,,,,,,,,
2019,05,29,04,05,00,103.7,,,,,,,,,,,,,,
2019,05,29,04,06,00,110.2,,,,,,,,,,,,,,
2019,05,29,04,07,00,114.9,,,,,,,,,,,,,,
2019,05,29,04,08,00,109.8,,,,,,,,,,,,,,
2019,05,29,04,09,00,106.5,,,,,,,,,,,,,,
2019,05,29,04,10,00,107.2,,,,,,,,,,,,,,
2019,05,29,04,11,00,104.7,,,,,,,,,,,,,,
2019,05,29,04,12,00,104.6,,,,,,,,,,,,,,
2019,05,29,04,13,00,110.3,,,,,,,,,,,,,,
2019,05,29,04,14,00,119.8,,,,,,,,,,,,,,
2019,05,29,04,15,00,122.2,,,,,,,,,,,,,,
2019,05,29,04,16,00,117.8,,,,,,,,,,,,,,
2019,05,29,04,17,00,111.9,,,,,,,,,,,,,,
2019,05,29,04,18,00,110.9,,,,,,,,,,,,,,
2019,05,29,04,19,00,108.0,,,,,,,,,,,,,,
2019,05,29,04,20,00,106.8,,,,,,,,,,,,,,
2019,05,29,04,21,00,107.5,,,,,,,,,,,,,,
2019,05,29,04,22,00,107.5,,,,,,,,,,,,,,
2019,05,29,04,23,00,107.7,,,,,,,,,,,,,,
2019,05,29,04,24,00,110.7,,,,,,,,,,,,,,
2019,05,29,04,25,00,109.8,,,,,,,,,,,,,,
2019,05,29,04,26,00,107.7,,,,,,,,,,,,,,
2019,05,29,04,27,00,105.4,,,,,,,,,,,,,,
2019,05,29,04,28,00,105.8,,,,,,,,,,,,,,
2019,05,29,04,29,00,107.3,,,,,,,,,,,,,,
2019,05,29,04,30,00,112.6,,,,,,,,,,,,,,
2019,05,29,04,31,00,128.6,,,,,,,,,,,,,,
2019,05,29,04,32,00,146.7,,,,,,,,,,,,,,
2019,05,29,04,33,00,162.5,,,,,,,,,,,,,,
2019,05,29,04,34,00,132.0,,,,,,,,,,,,,,
2019,05,29,04,35,00,119.0,,,,,,,,,,,,,,
2019,05,29,04,36,00,116.3,,,,,,,,,,,,,,
2019,05,29,04,37,00,118.3,,,,,,,,,,,,,,
2019,05,29,04,38,00,120.3,,,,,,,,,,,,,,
2019,05,29,04,39,00,116.8,,,,,,,,,,,,,,
2019,05,29,04,40,00,114.9,,,,,,,,,,,,,,
2019,05,29,04,41,00,111.6,,,,,,,,,,,,,,
2019,05,29,04,42,00,108.7,,,,,,,,,,,,,,
2019,05,29,04,43,00,103.1,,,,,,,,,,,,,,
2019,05,29,04,44,00,105.3,,,,,,,,,,,,,,
2019,05,29,04,45,00,107.9,,,,,,,,,,,,,,
2019,05,29,04,46,00,110.2,,,,,,,,,,,,,,
2019,05,29,04,47,00,111.1,,,,,,,,,,,,,,
2019,05,29,04,48,00,112.6,,,,,,,,,,,,,,
2019,05,29,04,49,00,112.8,,,,,,,,,,,,,,
2019,05,29,04,50,00,115.9,,,,,,,,,,,,,,
2019,05,29,04,51,00,115.4,,,,,,,,,,,,,,
2019,05,29,04,52,00,120.4,,,,,,,,,,,,,,
2019,05,29,04,53,00,124.3,,,,,,,,,,,,,,
2019,05,29,04,54,00,137.6,,,,,,,,,,,,,,
2019,05,29,04,55,00,148.5,,,,,,,,,,,,,,
2019,05,29,04,56,00,129.8,,,,,,,,,,,,,,
2019,05,29,04,57,00,125.9,,,,,,,,,,,,,,
2019,05,29,04,58,00,122.3,,,,,,,,,,,,,,
2019,05,29,04,59,00,118.1,,,,,,,,,,,,,,
2019,05,29,05,00,00,121.6,,,,,,,,,,,,,,
2019,05,29,05,01,00,120.9,,,,,,,,,,,,,,
2019,05,29,05,02,00,125.2,,,,,,,,,,,,,,
2019,05,29,05,03,00,147.0,,,,,,,,,,,,,,
2019,05,29,05,04,00,156.5,,,,,,,,,,,,,,
2019,05,29,05,05,00,129.9,,,,,,,,,,,,,,
2019,05,29,05,06,00,119.8,,,,,,,,,,,,,,
2019,05,29,05,07,00,118.5,,,,,,,,,,,,,,
2019,05,29,05,08,00,120.8,,,,,,,,,,,,,,
2019,05,29,05,09,00,127.6,,,,,,,,,,,,,,
2019,05,29,05,10,00,149.6,,,,,,,,,,,,,,
2019,05,29,05,11,00,148.9,,,,,,,,,,,,,,
2019,05,29,05,12,00,149.8,,,,,,,,,,,,,,
2019,05,29,05,13,00,167.6,,,,,,,,,,,,,,
2019,05,29,05,14,00,164.3,,,,,,,,,,,,,,
2019,05,29,05,15,00,162.8,,,,,,,,,,,,,,
2019,05,29,05,16,00,143.4,,,,,,,,,,,,,,
2019,05,29,05,17,00,135.2,,,,,,,,,,,,,,
2019,05,29,05,18,00,143.5,,,,,,,,,,,,,,
2019,05,29,05,19,00,165.0,,,,,,,,,,,,,,
2019,05,29,05,20,00,176.8,,,,,,,,,,,,,,
2019,05,29,05,21,00,185.2,,,,,,,,,,,,,,
2019,05,29,05,22,00,198.4,,,,,,,,,,,,,,
2019,05,29,05,23,00,199.4,,,,,,,,,,,,,,
2019,05,29,05,24,00,198.1,,,,,,,,,,,,,,
2019,05,29,05,25,00,202.9,,,,,,,,,,,,,,
2019,05,29,05,26,00,208.7,,,,,,,,,,,,,,
2019,05,29,05,27,00,209.5,,,,,,,,,,,,,,
2019,05,29,05,28,00,179.8,,,,,,,,,,,,,,
2019,05,29,05,29,00,155.6,,,,,,,,,,,,,,
2019,05,29,05,30,00,155.1,,,,,,,,,,,,,,
2019,05,29,05,31,00,145.0,,,,,,,,,,,,,,
2019,05,29,05,32,00,150.5,,,,,,,,,,,,,,
2019,05,29,05,33,00,155.9,,,,,,,,,,,,,,
2019,05,29,05,34,00,142.3,,,,,,,,,,,,,,
2019,05,29,05,35,00,140.8,,,,,,,,,,,,,,
2019,05,29,05,36,00,171.4,,,,,,,,,,,,,,
2019,05,29,05,37,00,148.4,,,,,,,,,,,,,,
2019,05,29,05,38,00,146.9,,,,,,,,,,,,,,
2019,05,29,05,39,00,163.1,,,,,,,,,,,,,,
2019,05,29,05,40,00,162.6,,,,,,,,,,,,,,
2019,05,29,05,41,00,134.1,,,,,,,,,,,,,,
2019,05,29,05,42,00,144.0,,,,,,,,,,,,,,
2019,05,29,05,43,00,132.7,,,,,,,,,,,,,,
2019,05,29,05,44,00,142.5,,,,,,,,,,,,,,
2019,05,29,05,45,00,135.5,,,,,,,,,,,,,,
2019,05,29,05,46,00,136.2,,,,,,,,,,,,,,
2019,05,29,05,47,00,150.7,,,,,,,,,,,,,,
2019,05,29,05,48,00,155.6,,,,,,,,,,,,,,
2019,05,29,05,49,00,165.5,,,,,,,,,,,,,,
2019,05,29,05,50,00,173.6,,,,,,,,,,,,,,
2019,05,29,05,51,00,187.1,,,,,,,,,,,,,,
2019,05,29,05,52,00,188.5,,,,,,,,,,,,,,
2019,05,29,05,53,00,182.1,,,,,,,,,,,,,,
2019,05,29,05,54,00,177.0,,,,,,,,,,,,,,
2019,05,29,05,55,00,164.5,,,,,,,,,,,,,,
2019,05,29,05,56,00,165.1,,,,,,,,,,,,,,
2019,05,29,05,57,00,192.1,,,,,,,,,,,,,,
2019,05,29,05,58,00,223.8,,,,,,,,,,,,,,
2019,05,29,05,59,00,229.8,,,,,,,,,,,,,,
2019,05,29,06,00,00,202.8,,,,,,,,,,,,,,
2019,05,29,06,01,00,195.4,,,,,,,,,,,,,,
2019,05,29,06,02,00,190.3,,,,,,,,,,,,,,
2019,05,29,06,03,00,186.7,,,,,,,,,,,,,,
2019,05,29,06,04,00,174.4,,,,,,,,,,,,,,
2019,05,29,06,05,00,180.7,,,,,,,,,,,,,,
2019,05,29,06,06,00,168.0,,,,,,,,,,,,,,
2019,05,29,06,07,00,185.9,,,,,,,,,,,,,,
2019,05,29,06,08,00,174.5,,,,,,,,,,,,,,
2019,05,29,06,09,00,178.8,,,,,,,,,,,,,,
2019,05,29,06,10,00,201.2,,,,,,,,,,,,,,
2019,05,29,06,11,00,201.8,,,,,,,,,,,,,,
2019,05,29,06,12,00,184.5,,,,,,,,,,,,,,
2019,05,29,06,13,00,173.6,,,,,,,,,,,,,,
2019,05,29,06,14,00,174.6,,,,,,,,,,,,,,
2019,05,29,06,15,00,200.7,,,,,,,,,,,,,,
2019,05,29,06,16,00,191.9,,,,,,,,,,,,,,
2019,05,29,06,17,00,176.1,,,,,,,,,,,,,,
2019,05,29,06,18,00,212.8,,,,,,,,,,,,,,
2019,05,29,06,19,00,216.1,,,,,,,,,,,,,,
2019,05,29,06,20,00,198.4,,,,,,,,,,,,,,
2019,05,29,06,21,00,197.9,,,,,,,,,,,,,,
2019,05,29,06,22,00,196.2,,,,,,,,,,,,,,
2019,05,29,06,23,00,205.4,,,,,,,,,,,,,,
2019,05,29,06,24,00,204.5,,,,,,,,,,,,,,
2019,05,29,06,25,00,173.8,,,,,,,,,,,,,,
2019,05,29,06,26,00,166.7,,,,,,,,,,,,,,
2019,05,29,06,27,00,158.5,,,,,,,,,,,,,,
2019,05,29,06,28,00,166.2,,,,,,,,,,,,,,
2019,05,29,06,29,00,169.4,,,,,,,,,,,,,,
2019,05,29,06,30,00,171.4,,,,,,,,,,,,,,
2019,05,29,06,31,00,170.0,,,,,,,,,,,,,,
2019,05,29,06,32,00,192.0,,,,,,,,,,,,,,
2019,05,29,06,33,00,197.5,,,,,,,,,,,,,,
2019,05,29,06,34,00,206.2,,,,,,,,,,,,,,
2019,05,29,06,35,00,221.9,,,,,,,,,,,,,,
2019,05,29,06,36,00,206.6,,,,,,,,,,,,,,
2019,05,29,06,37,00,188.4,,,,,,,,,,,,,,
2019,05,29,06,38,00,186.8,,,,,,,,,,,,,,
2019,05,29,06,39,00,171.7,,,,,,,,,,,,,,
2019,05,29,06,40,00,181.8,,,,,,,,,,,,,,
2019,05,29,06,41,00,201.3,,,,,,,,,,,,,,
2019,05,29,06,42,00,186.9,,,,,,,,,,,,,,
2019,05,29,06,43,00,151.8,,,,,,,,,,,,,,
2019,05,29,06,44,00,154.7,,,,,,,,,,,,,,
2019,05,29,06,45,00,156.8,,,,,,,,,,,,,,
2019,05,29,06,46,00,146.3,,,,,,,,,,,,,,
2019,05,29,06,47,00,144.7,,,,,,,,,,,,,,
2019,05,29,06,48,00,165.2,,,,,,,,,,,,,,
2019,05,29,06,49,00,179.5,,,,,,,,,,,,,,
2019,05,29,06,50,00,203.0,,,,,,,,,,,,,,
2019,05,29,06,51,00,197.4,,,,,,,,,,,,,,
2019,05,29,06,52,00,168.7,,,,,,,,,,,,,,
2019,05,29,06,53,00,160.1,,,,,,,,,,,,,,
2019,05,29,06,54,00,178.3,,,,,,,,,,,,,,
2019,05,29,06,55,00,213.8,,,,,,,,,,,,,,
2019,05,29,06,56,00,214.5,,,,,,,,,,,,,,
2019,05,29,06,57,00,215.6,,,,,,,,,,,,,,
2019,05,29,06,58,00,182.9,,,,,,,,,,,,,,
2019,05,29,06,59,00,192.3,,,,,,,,,,,,,,
2019,05,29,07,00,00,200.9,,,,,,,,,,,,,,
2019,05,29,07,01,00,205.3,,,,,,,,,,,,,,
2019,05,29,07,02,00,192.2,,,,,,,,,,,,,,
2019,05,29,07,03,00,196.2,,,,,,,,,,,,,,
2019,05,29,07,04,00,226.2,,,,,,,,,,,,,,
2019,05,29,07,05,00,219.4,,,,,,,,,,,,,,
2019,05,29,07,06,00,184.5,,,,,,,,,,,,,,
2019,05,29,07,07,00,192.3,,,,,,,,,,,,,,
2019,05,29,07,08,00,203.8,,,,,,,,,,,,,,
2019,05,29,07,09,00,209.0,,,,,,,,,,,,,,
2019,05,29,07,10,00,195.8,,,,,,,,,,,,,,
2019,05,29,07,11,00,211.1,,,,,,,,,,,,,,
2019,05,29,07,12,00,208.6,,,,,,,,,,,,,,
2019,05,29,07,13,00,178.7,,,,,,,,,,,,,,
2019,05,29,07,14,00,154.8,,,,,,,,,,,,,,
2019,05,29,07,15,00,141.7,,,,,,,,,,,,,,
2019,05,29,07,16,00,126.3,,,,,,,,,,,,,,
2019,05,29,07,17,00,108.6,,,,,,,,,,,,,,
2019,05,29,07,18,00,37.9,,,,,,,,,,,,,,
2019,05,29,07,19,00,-24.1,,,,,,,,,,,,,,
2019,05,29,07,20,00,-9.4,,,,,,,,,,,,,,
2019,05,29,07,21,00,5.4,,,,,,,,,,,,,,
2019,05,29,07,22,00,-0.9,,,,,,,,,,,,,,
2019,05,29,07,23,00,-8.7,,,,,,,,,,,,,,
2019,05,29,07,24,00,-5.8,,,,,,,,,,,,,,
2019,05,29,07,25,00,7.1,,,,,,,,,,,,,,
2019,05,29,07,26,00,41.3,,,,,,,,,,,,,,
2019,05,29,07,27,00,71.3,,,,,,,,,,,,,,
2019,05,29,07,28,00,82.3,,,,,,,,,,,,,,
2019,05,29,07,29,00,78.4,,,,,,,,,,,,,,
2019,05,29,07,30,00,80.4,,,,,,,,,,,,,,
2019,05,29,07,31,00,78.0,,,,,,,,,,,,,,
2019,05,29,07,32,00,71.1,,,,,,,,,,,,,,
2019,05,29,07,33,00,63.7,,,,,,,,,,,,,,
2019,05,29,07,34,00,67.1,,,,,,,,,,,,,,
2019,05,29,07,35,00,59.7,,,,,,,,,,,,,,
2019,05,29,07,36,00,51.3,,,,,,,,,,,,,,
2019,05,29,07,37,00,43.8,,,,,,,,,,,,,,
2019,05,29,07,38,00,32.7,,,,,,,,,,,,,,
2019,05,29,07,39,00,-1.0,,,,,,,,,,,,,,
2019,05,29,07,40,00,-7.8,,,,,,,,,,,,,,
2019,05,29,07,41,00,-24.9,,,,,,,,,,,,,,
2019,05,29,07,42,00,-51.3,,,,,,,,,,,,,,
2019,05,29,07,43,00,-69.7,,,,,,,,,,,,,,
2019,05,29,07,44,00,-89.3,,,,,,,,,,,,,,
2019,05,29,07,45,00,-92.1,,,,,,,,,,,,,,
2019,05,29,07,46,00,-92.2,,,,,,,,,,,,,,
2019,05,29,07,47,00,-92.1,,,,,,,,,,,,,,
2019,05,29,07,48,00,-91.9,,,,,,,,,,,,,,
2019,05,29,07,49,00,-89.9,,,,,,,,,,,,,,
2019,05,29,07,50,00,-60.9,,,,,,,,,,,,,,
2019,05,29,07,51,00,-12.7,,,,,,,,,,,,,,
2019,05,29,07,52,00,69.5,,,,,,,,,,,,,,
2019,05,29,07,53,00,92.4,,,,,,,,,,,,,,
2019,05,29,07,54,00,41.1,,,,,,,,,,,,,,
2019,05,29,07,55,00,-8.4,,,,,,,,,,,,,,
2019,05,29,07,56,00,-21.5,,,,,,,,,,,,,,
2019,05,29,07,57,00,-25.4,,,,,,,,,,,,,,
2019,05,29,07,58,00,-15.9,,,,,,,,,,,,,,
2019,05,29,07,59,00,-6.7,,,,,,,,,,,,,,
2019,05,29,08,00,00,-4.2,,,,,,,,,,,,,,
2019,05,29,08,01,00,20.8,,,,,,,,,,,,,,
2019,05,29,08,02,00,35.4,,,,,,,,,,,,,,
2019,05,29,08,03,00,44.5,,,,,,,,,,,,,,
2019,05,29,08,04,00,53.0,,,,,,,,,,,,,,
2019,05,29,08,05,00,45.1,,,,,,,,,,,,,,
2019,05,29,08,06,00,36.9,,,,,,,,,,,,,,
2019,05,29,08,07,00,34.0,,,,,,,,,,,,,,
2019,05,29,08,08,00,29.4,,,,,,,,,,,,,,
2019,05,29,08,09,00,33.1,,,,,,,,,,,,,,
2019,05,29,08,10,00,35.9,,,,,,,,,,,,,,
2019,05,29,08,11,00,36.7,,,,,,,,,,,,,,
2019,05,29,08,12,00,36.7,,,,,,,,,,,,,,
2019,05,29,08,13,00,35.4,,,,,,,,,,,,,,
2019,05,29,08,14,00,32.9,,,,,,,,,,,,,,
2019,05,29,08,15,00,30.7,,,,,,,,,,,,,,
2019,05,29,08,16,00,31.7,,,,,,,,,,,,,,
2019,05,29,08,17,00,36.3,,,,,,,,,,,,,,
2019,05,29,08,18,00,37.0,,,,,,,,,,,,,,
2019,05,29,08,19,00,33.2,,,,,,,,,,,,,,
2019,05,29,08,20,00,5.9,,,,,,,,,,,,,,
2019,05,29,08,21,00,-5.6,,,,,,,,,,,,,,
2019,05,29,08,22,00,-5.8,,,,,,,,,,,,,,
2019,05,29,08,23,00,-34.7,,,,,,,,,,,,,,
2019,05,29,08,24,00,-58.5,,,,,,,,,,,,,,
2019,05,29,08,25,00,-52.8,,,,,,,,,,,,,,
2019,05,29,08,26,00,-15.2,,,,,,,,,,,,,,
2019,05,29,08,27,00,-5.6,,,,,,,,,,,,,,
2019,05,29,08,28,00,-5.8,,,,,,,,,,,,,,
2019,05,29,08,29,00,-11.9,,,,,,,,,,,,,,
2019,05,29,08,30,00,-34.3,,,,,,,,,,,,,,
2019,05,29,08,31,00,-53.0,,,,,,,,,,,,,,
2019,05,29,08,32,00,-35.5,,,,,,,,,,,,,,
2019,05,29,08,33,00,-14.2,,,,,,,,,,,,,,
2019,05,29,08,34,00,-6.2,,,,,,,,,,,,,,
2019,05,29,08,35,00,-6.2,,,,,,,,,,,,,,
2019,05,29,08,36,00,-17.5,,,,,,,,,,,,,,
2019,05,29,08,37,00,-51.3,,,,,,,,,,,,,,
2019,05,29,08,38,00,-88.4,,,,,,,,,,,,,,
2019,05,29,08,39,00,-170.5,,,,,,,,,,,,,,
2019,05,29,08,40,00,-144.4,,,,,,,,,,,,,,
2019,05,29,08,41,00,-181.7,,,,,,,,,,,,,,
2019,05,29,08,42,00,-380.9,,,,,,,,,,,,,,
2019,05,29,08,43,00,-457.6,,,,,,,,,,,,,,
2019,05,29,08,44,00,-348.0,,,,,,,,,,,,,,
2019,05,29,08,45,00,-245.0,,,,,,,,,,,,,,
2019,05,29,08,46,00,-97.0,,,,,,,,,,,,,,
2019,05,29,08,47,00,71.9,,,,,,,,,,,,,,
2019,05,29,08,48,00,247.4,,,,,,,,,,,,,,
2019,05,29,08,49,00,682.5,,,,,,,,,,,,,,
2019,05,29,08,50,00,1205.9,,,,,,,,,,,,,,
2019,05,29,08,51,00,1088.4,,,,,,,,,,,,,,
2019,05,29,08,52,00,1171.1,,,,,,,,,,,,,,
2019,05,29,08,53,00,1549.7,,,,,,,,,,,,,,
2019,05,29,08,54,00,1611.8,,,,,,,,,,,,,,
2019,05,29,08,55,00,1411.3,,,,,,,,,,,,,,
2019,05,29,08,56,00,1094.5,,,,,,,,,,,,,,
2019,05,29,08,57,00,840.7,,,,,,,,,,,,,,
2019,05,29,08,58,00,731.1,,,,,,,,,,,,,,
2019,05,29,08,59,00,460.6,,,,,,,,,,,,,,
2019,05,29,09,00,00,-148.5,,,,,,,,,,,,,,
2019,05,29,09,01,00,-534.1,,,,,,,,,,,,,,
2019,05,29,09,02,00,-767.5,,,,,,,,,,,,,,
2019,05,29,09,03,00,-582.6,,,,,,,,,,,,,,
2019,05,29,09,04,00,-103.8,,,,,,,,,,,,,,
2019,05,29,09,05,00,277.2,,,,,,,,,,,,,,
2019,05,29,09,06,00,381.1,,,,,,,,,,,,,,
2019,05,29,09,07,00,409.4,,,,,,,,,,,,,,
2019,05,29,09,08,00,660.8,,,,,,,,,,,,,,
2019,05,29,09,09,00,893.4,,,,,,,,,,,,,,
2019,05,29,09,10,00,1004.5,,,,,,,,,,,,,,
2019,05,29,09,11,00,932.8,,,,,,,,,,,,,,
2019,05,29,09,12,00,735.1,,,,,,,,,,,,,,
2019,05,29,09,13,00,624.5,,,,,,,,,,,,,,
2019,05,29,09,14,00,624.3,,,,,,,,,,,,,,
2019,05,29,09,15,00,460.1,,,,,,,,,,,,,,
2019,05,29,09,16,00,211.2,,,,,,,,,,,,,,
2019,05,29,09,17,00,-21.0,,,,,,,,,,,,,,
2019,05,29,09,18,00,-218.8,,,,,,,,,,,,,,
2019,05,29,09,19,00,-106.6,,,,,,,,,,,,,,
2019,05,29,09,20,00,-121.6,,,,,,,,,,,,,,
2019,05,29,09,21,00,-199.5,,,,,,,,,,,,,,
2019,05,29,09,22,00,-434.4,,,,,,,,,,,,,,
2019,05,29,09,23,00,-631.3,,,,,,,,,,,,,,
2019,05,29,09,24,00,-996.0,,,,,,,,,,,,,,
2019,05,29,09,25,00,-1248.3,,,,,,,,,,,,,,
2019,05,29,09,26,00,-1375.8,,,,,,,,,,,,,,
2019,05,29,09,27,00,-1438.8,,,,,,,,,,,,,,
2019,05,29,09,28,00,-1287.8,,,,,,,,,,,,,,
2019,05,29,09,29,00,-988.1,,,,,,,,,,,,,,
2019,05,29,09,30,00,-611.7,,,,,,,,,,,,,,
2019,05,29,09,31,00,-276.7,,,,,,,,,,,,,,
2019,05,29,09,32,00,-88.0,,,,,,,,,,,,,,
2019,05,29,09,33,00,26.3,,,,,,,,,,,,,,
2019,05,29,09,34,00,112.7,,,,,,,,,,,,,,
2019,05,29,09,35,00,171.0,,,,,,,,,,,,,,
2019,05,29,09,36,00,215.0,,,,,,,,,,,,,,
2019,05,29,09,37,00,245.7,,,,,,,,,,,,,,
2019,05,29,09,38,00,251.8,,,,,,,,,,,,,,
2019,05,29,09,39,00,235.7,,,,,,,,,,,,,,
2019,05,29,09,40,00,206.1,,,,,,,,,,,,,,
2019,05,29,09,41,00,174.2,,,,,,,,,,,,,,
2019,05,29,09,42,00,158.0,,,,,,,,,,,,,,
2019,05,29,09,43,00,161.2,,,,,,,,,,,,,,
2019,05,29,09,44,00,149.8,,,,,,,,,,,,,,
2019,05,29,09,45,00,124.0,,,,,,,,,,,,,,
2019,05,29,09,46,00,113.3,,,,,,,,,,,,,,